Location: Vlissingen
(51.4500°N, 3.5830°E)
Time: 20:24:28
(UTC+02:00)

Daily predictions for brighter satellites

Satellite Brightness Start Highest point End
(mag) Time Altitude Azimuth Time Altitude Azimuth Time Altitude Azimuth
Cosmos 1943 Rocket 3.4 22:26:20 10° NNW 22:31:17 32° NE 22:36:14 10° ESE
Okean 2 4.1 22:28:26 10° SSW 22:32:34 58° WNW 22:36:43 10° N
Cosmos 1346 Rocket 4.3 22:34:23 10° SE 22:37:13 20° E 22:40:06 10° NE
MetOp-A 4.3 22:32:54 10° SSE 22:38:16 80° WSW 22:43:41 10° NNW
Cosmos 1992 Rocket 4.0 22:36:44 10° NNW 22:42:01 84° ENE 22:47:14 10° SSE
Cosmos 494 Rocket 4.4 22:38:00 10° SW 22:43:05 67° WNW 22:48:13 10° NNE
SPOT 5 3.4 22:40:39 10° S 22:44:55 50° W 22:49:10 10° NNW
Cosmos 1634 Rocket 4.1 22:42:05 10° N 22:48:16 68° ENE 22:54:25 10° SSE
YAOGAN 6 2.8 22:45:04 10° S 22:48:48 80° WSW 22:52:34 10° NNW
Cosmos 2237 Rocket 4.1 22:44:30 10° WSW 22:49:40 35° NW 22:54:52 10° NNE
CARTOSAT-1 4.4 22:46:04 10° SE 22:50:03 38° ENE 22:54:05 10° N
H-2A R/B 2.6 22:46:25 10° SE 22:51:06 44° ENE 22:55:56 10° N
SL-8 R/B 3.8 22:46:45 10° WSW 22:51:31 61° S 22:56:18 10° E
Landsat 7 4.2 22:47:51 10° SE 22:52:29 55° ENE 22:57:09 10° N
Lacrosse 5 2.9 22:52:44 10° W 22:57:40 50° NNW 23:02:37 10° ENE
Cosmos 1602 Rocket 4.1 22:53:46 10° SSW 22:58:13 62° WNW 23:02:40 10° N
ISS -1.6 22:56:52 10° S 22:58:39 14° SE 23:00:27 10° ESE
SL-08 RB Rocket 3.7 22:54:55 10° SSE 22:59:29 81° ENE 23:04:02 10° NNW
SPOT 1/Viking Rocket 3.8 22:54:34 10° S 22:59:44 73° WSW 23:04:54 10° NNW
Cosmos 1812 Rocket 4.5 22:59:05 10° NNW 23:03:18 46° W 23:07:30 10° SSW
Cosmos 1825 Rocket 3.8 22:59:00 10° S 23:03:21 55° E 23:07:42 10° NNE
Atlas Centaur 2 4.4 23:00:05 10° SSW 23:04:13 15° S 23:07:36 12° SE
Cosmos 2369 Rocket 2.3 23:00:08 10° NNW 23:05:52 82° WSW 23:11:05 12° SSE
Terra 2.2 23:04:02 12° SE 23:08:17 55° ENE 23:12:57 10° N
Cosmos 1766 3.7 23:05:17 10° N 23:09:12 50° ENE 23:12:27 14° SSE
ARGOS 3.4 23:06:22 10° S 23:11:47 73° WSW 23:17:15 10° NNW
Cosmos 2279 Rocket 4.2 23:06:54 10° N 23:13:07 64° ENE 23:18:43 13° SSE
SeaSat 1 4.2 23:09:38 10° SSW 23:13:44 26° WSW 23:17:51 10° NW
Aureole 2 Rocket 4.2 23:11:17 10° SW 23:14:48 37° WNW 23:18:03 10° N
CZ-4B R/B 3.6 23:09:50 10° NNE 23:14:53 82° WNW 23:20:02 10° SSW
SAR-Lupe-2 3.6 23:13:32 15° SSE 23:16:27 69° ENE 23:20:03 10° N
SL-16 R/B 3.6 23:11:47 10° WSW 23:17:09 43° NW 23:22:34 10° NNE
ATLAS 3B R/B 3.4 23:11:47 10° S 23:18:46 40° ESE 23:25:37 10° NE
COSMOS 2455 2.8 23:14:56 10° SSW 23:20:52 67° ESE 23:26:52 10° NE
NOAA 11 4.5 23:17:27 10° S 23:22:50 65° WSW 23:28:14 10° NNW
ATLAS CENTAUR R/B 3.8 23:18:57 10° W 23:23:31 33° NNW 23:28:04 10° NNE
Meteor 1-22 Rocket 4.3 23:22:20 10° NNW 23:27:50 77° W 23:33:05 12° S
Cosmos 2263 4.3 23:23:25 10° NNW 23:29:02 76° WSW 23:33:39 16° SSE
USA 234 4.3 23:23:49 12° SSE 23:29:15 33° SW 23:35:06 10° WNW
CZ-4C R/B 3.9 23:25:26 12° S 23:29:20 59° WSW 23:33:21 10° NNW
Cosmos 1470 4.5 23:35:19 10° NNE 23:38:24 22° ENE 23:40:47 13° ESE
Cosmos 1805 3.6 23:40:19 10° N 23:44:12 52° ENE 23:46:37 21° SE
Cosmos 1953 2.4 23:40:30 10° N 23:44:29 63° ENE 23:47:00 21° SSE
Cosmos 1066 Rocket 4.4 23:39:20 10° SSW 23:45:02 77° WNW 23:50:54 10° N
Cosmos 1603 4.4 23:40:22 10° SW 23:45:54 57° NW 23:51:26 10° NNE
SL-24 R/B 4.4 23:41:18 10° N 23:46:11 84° E 23:50:31 15° S
Cosmos 1953 Rocket 3.8 23:44:10 10° SSW 23:48:34 73° WNW 23:53:03 10° N
Lacrosse 5 rocket 2.5 23:46:01 10° W 23:49:54 46° NNW 23:54:01 10° ENE
Cosmos 407 Rocket 3.5 23:49:00 10° SSW 23:54:13 71° ESE 23:59:25 10° NNE
